Location: Ch�tillon
(48.8024°N, 2.2935°E)
Time: 12:26:24
(UTC+00:00)

Cosmos 1697 Rocket - Pass Details

Date: 02 June 2022
Orbit: 833 x 843 km, 71.0° (Epoch: 03 July)

Event Time Altitude Azimuth Distance (km) Brightness Sun altitude
Rises 20:32:02 0° 250° (WSW) 3,395 6.2 -6.5°
Reaches altitude 10° 20:34:57 10° 264° (W) 2,463 5.7 -6.8°
Maximum altitude 20:39:27 24° 317° (NW) 1,692 5.5 -7.3°
Drops below altitude 10° 20:43:59 10° 10° (N) 2,470 5.7 -7.8°
Sets 20:46:56 0° 25° (NNE) 3,407 6.2 -8.2°
